Flag for Canada Weather past 2 weeks in Stephenville, Newfoundland and Labrador, Canada

Now
63 °F

Scattered clouds.


Feels Like: 63 °F
Forecast: 58 / 67 °F
Wind: 2 mph from North

Location: Stephenville

Current Time: Aug 2, 2015 at 7:59:08 AM

Latest Report: Aug 2, 2015 at 7:30 AM


Visibility: 15 mi

Pressure: 29.66 "Hg

Humidity: 88%

Dew point: 59 °F

Location of StephenvilleLocation

Historic Weather in Stephenville — Graph

°F

Stephenville temperature yesterday

Maximum temperature yesterday: 73 °F (at 11:30 AM)
Minimum temperature yesterday: 61 °F (at 12:30 AM)
Average temperature yesterday: 65 °F

Past Weeks' High & Low Weather Summary

 TemperatureHumidityPressure
High75 °F (Jul 31, 1:30 PM)100% (Jul 27, 1:30 AM)30.17 "Hg (Jul 27, 1:30 AM)
Low45 °F (Jul 26, 2:30 AM)52% (Jul 25, 5:30 PM)29.55 "Hg (Jul 23, 8:30 AM)
Average59 °F81%29.91 "Hg
* Reported Jul 18 6:30 AM — Aug 2 6:30 AM, Stephenville, Weather by CustomWeather, © 2015

Note: Actual official high and low records may vary slightly from our data, if they occured in-between our weather recording intervals... More about our weather records

Advertising

Stephenville weather history for previous 24 hours

 ConditionsComfort  
Time TempWeatherWind HumidityBarometerVisibility
6:30 AM
Sun, Aug 2
61 °FScattered clouds.3 mph88%29.65 "Hg15 mi
5:30 AM63 °FPassing clouds.5 mph88%29.65 "Hg15 mi
4:30 AM63 °FPassing clouds.6 mph94%29.65 "Hg15 mi
3:30 AM63 °FPassing clouds.6 mph94%29.66 "Hg15 mi
2:30 AM61 °FPassing clouds.8 mph100%29.67 "Hg15 mi
1:30 AM61 °FPassing clouds.6 mph100%29.69 "Hg15 mi
12:30 AM63 °FPassing clouds.6 mph94%29.71 "Hg15 mi
11:30 PM
Sat, Aug 1
63 °FMostly cloudy.3 mph94%29.71 "Hg15 mi
10:30 PM61 °FMostly cloudy.No wind100%29.72 "Hg15 mi
9:30 PM61 °FBroken clouds.5 mph100%29.71 "Hg12 mi
8:30 PM63 °FPartly sunny.6 mph94%29.70 "Hg8 mi
7:30 PM63 °FBroken clouds.12 mph94%29.69 "Hg12 mi
6:30 PM64 °FPassing clouds.13 mph88%29.68 "Hg15 mi
5:30 PM66 °FScattered clouds.10 mph83%29.69 "Hg15 mi
4:30 PM68 °FScattered clouds.13 mph83%29.68 "Hg15 mi
3:30 PM68 °FScattered clouds.13 mph83%29.69 "Hg15 mi
2:30 PM68 °FBroken clouds.14 mph83%29.68 "Hg15 mi
1:30 PM70 °FScattered clouds.7 mph78%29.69 "Hg15 mi
12:30 PM70 °FBroken clouds.12 mph78%29.68 "Hg15 mi
11:30 AM73 °FPartly sunny.2 mph74%29.68 "Hg15 mi
10:30 AM72 °FPartly sunny.6 mph73%29.68 "Hg15 mi
9:30 AM68 °FBroken clouds.12 mph78%29.68 "Hg15 mi
8:30 AM64 °FPartly sunny.12 mph83%29.68 "Hg15 mi
7:30 AM64 °FPartly sunny.13 mph83%29.67 "Hg15 mi
Weather by CustomWeather, © 2015

See weather overviewHow to use our weather pages